Time,TemperatureF,DewpointF,PressureIn,WindDirection,WindDirectionDegrees,WindSpeedMPH,WindSpeedGustMPH,Humidity,HourlyPrecipIn,Conditions,Clouds,dailyrainin,SoftwareType,DateUTC
2013-02-14 00:02:00,31.0,21.0,29.70,WSW,257,0.0,3.0,67,0.00,,,0.00,,2013-02-14 05:02:00,
2013-02-14 00:11:00,31.0,21.0,29.70,WSW,257,0.0,3.0,67,0.00,,,0.00,,2013-02-14 05:11:00,
2013-02-14 00:22:00,31.0,21.0,29.71,West,259,0.0,1.0,65,0.00,,,0.00,,2013-02-14 05:22:00,
2013-02-14 00:32:00,31.0,21.0,29.73,WSW,254,0.0,4.0,65,0.00,,,0.00,,2013-02-14 05:32:00,
2013-02-14 00:42:00,31.0,21.0,29.73,WSW,254,0.0,4.0,65,0.00,,,0.00,,2013-02-14 05:42:00,
2013-02-14 00:52:00,31.0,21.0,29.73,WSW,254,0.0,4.0,65,0.00,,,0.00,,2013-02-14 05:52:00,
2013-02-14 01:02:00,31.0,20.0,29.74,WSW,255,0.0,0.0,62,0.00,,,0.00,,2013-02-14 06:02:00,
2013-02-14 01:11:00,31.0,20.0,29.74,WSW,255,0.0,0.0,64,0.00,,,0.00,,2013-02-14 06:11:00,
2013-02-14 01:22:00,31.0,20.0,29.74,WSW,255,0.0,0.0,64,0.00,,,0.00,,2013-02-14 06:22:00,
2013-02-14 01:32:00,31.0,20.0,29.72,WSW,255,0.0,0.0,64,0.00,,,0.00,,2013-02-14 06:32:00,
2013-02-14 01:42:00,31.0,20.0,29.72,WSW,255,0.0,0.0,64,0.00,,,0.00,,2013-02-14 06:42:00,
2013-02-14 01:52:00,31.0,22.0,29.72,West,259,0.0,3.0,68,0.00,,,0.00,,2013-02-14 06:52:00,
2013-02-14 02:01:00,31.0,22.0,29.71,West,259,0.0,0.0,69,0.00,,,0.00,,2013-02-14 07:01:00,
2013-02-14 02:11:00,31.0,22.0,29.71,West,259,0.0,0.0,70,0.00,,,0.00,,2013-02-14 07:11:00,
2013-02-14 02:21:00,31.0,22.0,29.71,West,259,0.0,0.0,70,0.00,,,0.00,,2013-02-14 07:21:00,
2013-02-14 02:32:00,31.0,23.0,29.72,West,259,0.0,0.0,71,0.00,,,0.00,,2013-02-14 07:32:00,
2013-02-14 02:42:00,31.0,23.0,29.72,West,259,0.0,0.0,71,0.00,,,0.00,,2013-02-14 07:42:00,
2013-02-14 02:52:00,31.0,23.0,29.72,West,259,0.0,0.0,72,0.00,,,0.00,,2013-02-14 07:52:00,
2013-02-14 03:01:00,30.0,22.0,29.72,West,259,0.0,0.0,73,0.00,,,0.00,,2013-02-14 08:01:00,
2013-02-14 03:11:00,30.0,22.0,29.72,West,259,0.0,0.0,73,0.00,,,0.00,,2013-02-14 08:11:00,
2013-02-14 03:22:00,30.0,22.0,29.72,West,259,0.0,0.0,73,0.00,,,0.00,,2013-02-14 08:22:00,
2013-02-14 03:32:00,29.0,21.0,29.72,West,259,0.0,0.0,73,0.00,,,0.00,,2013-02-14 08:32:00,
2013-02-14 03:43:00,29.0,21.0,29.72,West,259,0.0,0.0,73,0.00,,,0.00,,2013-02-14 08:43:00,
2013-02-14 03:52:00,29.0,21.0,29.73,West,259,0.0,0.0,73,0.00,,,0.00,,2013-02-14 08:52:00,
2013-02-14 04:02:00,29.0,21.0,29.74,West,259,0.0,0.0,72,0.00,,,0.00,,2013-02-14 09:02:00,
2013-02-14 04:11:00,29.0,21.0,29.74,West,259,0.0,2.0,71,0.00,,,0.00,,2013-02-14 09:11:00,
2013-02-14 04:21:00,29.0,21.0,29.74,West,259,0.0,2.0,71,0.00,,,0.00,,2013-02-14 09:21:00,
2013-02-14 04:32:00,29.0,20.0,29.75,West,259,0.0,0.0,69,0.00,,,0.00,,2013-02-14 09:32:00,
2013-02-14 04:42:00,29.0,20.0,29.75,West,259,0.0,0.0,69,0.00,,,0.00,,2013-02-14 09:42:00,
2013-02-14 04:52:00,29.0,20.0,29.75,West,259,0.0,0.0,69,0.00,,,0.00,,2013-02-14 09:52:00,
2013-02-14 05:02:00,29.0,19.0,29.76,West,259,0.0,0.0,67,0.00,,,0.00,,2013-02-14 10:02:00,
2013-02-14 05:11:00,29.0,19.0,29.76,West,259,0.0,3.0,67,0.00,,,0.00,,2013-02-14 10:11:00,
2013-02-14 05:21:00,29.0,19.0,29.76,West,259,0.0,3.0,67,0.00,,,0.00,,2013-02-14 10:21:00,
2013-02-14 05:32:00,28.0,19.0,29.76,West,259,0.0,0.0,68,0.00,,,0.00,,2013-02-14 10:32:00,
2013-02-14 05:42:00,28.0,19.0,29.76,West,259,0.0,0.0,68,0.00,,,0.00,,2013-02-14 10:42:00,
2013-02-14 05:52:00,28.0,19.0,29.77,West,259,0.0,0.0,69,0.00,,,0.00,,2013-02-14 10:52:00,
2013-02-14 06:02:00,27.0,19.0,29.77,West,259,0.0,0.0,70,0.00,,,0.00,,2013-02-14 11:02:00,
2013-02-14 06:11:00,27.0,18.0,29.77,West,259,0.0,0.0,69,0.00,,,0.00,,2013-02-14 11:11:00,
2013-02-14 06:21:00,27.0,18.0,29.77,West,259,0.0,0.0,69,0.00,,,0.00,,2013-02-14 11:21:00,
2013-02-14 06:32:00,26.0,18.0,29.79,West,259,0.0,2.0,71,0.00,,,0.00,,2013-02-14 11:32:00,
2013-02-14 06:42:00,26.0,18.0,29.79,West,259,0.0,2.0,71,0.00,,,0.00,,2013-02-14 11:42:00,
2013-02-14 06:52:00,26.0,18.0,29.79,West,259,0.0,1.0,72,0.00,,,0.00,,2013-02-14 11:52:00,
2013-02-14 07:02:00,26.0,18.0,29.79,West,259,0.0,1.0,72,0.00,,,0.00,,2013-02-14 12:02:00,
2013-02-14 07:12:00,26.0,18.0,29.79,West,259,0.0,1.0,72,0.00,,,0.00,,2013-02-14 12:12:00,
2013-02-14 07:22:00,26.0,18.0,29.80,West,259,0.0,0.0,72,0.00,,,0.00,,2013-02-14 12:22:00,
2013-02-14 07:32:00,25.0,17.0,29.82,West,259,0.0,0.0,72,0.00,,,0.00,,2013-02-14 12:32:00,
2013-02-14 07:42:00,25.0,17.0,29.82,West,259,0.0,0.0,72,0.00,,,0.00,,2013-02-14 12:42:00,
2013-02-14 07:53:00,26.0,19.0,29.82,West,261,0.0,0.0,73,0.00,,,0.00,,2013-02-14 12:53:00,
2013-02-14 08:02:00,28.0,20.0,29.83,West,261,0.0,1.0,70,0.00,,,0.00,,2013-02-14 13:02:00,
2013-02-14 08:11:00,28.0,20.0,29.83,West,261,0.0,1.0,70,0.00,,,0.00,,2013-02-14 13:11:00,
2013-02-14 08:21:00,29.0,20.0,29.84,West,262,0.0,3.0,68,0.00,,,0.00,,2013-02-14 13:21:00,
2013-02-14 08:32:00,32.0,20.0,29.85,West,262,0.0,1.0,62,0.00,,,0.00,,2013-02-14 13:32:00,
2013-02-14 08:42:00,32.0,20.0,29.85,West,262,0.0,1.0,62,0.00,,,0.00,,2013-02-14 13:42:00,
2013-02-14 08:52:00,35.0,20.0,29.86,West,262,0.0,4.0,54,0.00,,,0.00,,2013-02-14 13:52:00,
2013-02-14 09:01:00,37.0,20.0,29.86,West,269,0.0,5.0,49,0.00,,,0.00,,2013-02-14 14:01:00,
2013-02-14 09:11:00,38.0,20.0,29.87,West,280,1.0,4.0,47,0.00,,,0.00,,2013-02-14 14:11:00,
2013-02-14 09:21:00,38.0,20.0,29.87,West,280,1.0,4.0,47,0.00,,,0.00,,2013-02-14 14:21:00,
2013-02-14 09:32:00,38.0,19.0,29.88,West,269,0.0,5.0,46,0.00,,,0.00,,2013-02-14 14:32:00,
2013-02-14 09:42:00,38.0,19.0,29.88,West,269,0.0,5.0,46,0.00,,,0.00,,2013-02-14 14:42:00,
2013-02-14 09:52:00,39.0,20.0,29.88,West,279,0.0,5.0,47,0.00,,,0.00,,2013-02-14 14:52:00,
2013-02-14 10:02:00,39.0,18.0,29.88,WNW,300,0.0,4.0,43,0.00,,,0.00,,2013-02-14 15:02:00,
2013-02-14 10:11:00,39.0,18.0,29.88,WNW,300,0.0,4.0,43,0.00,,,0.00,,2013-02-14 15:11:00,
2013-02-14 10:21:00,40.0,19.0,29.88,WNW,290,0.0,7.0,43,0.00,,,0.00,,2013-02-14 15:21:00,
2013-02-14 10:32:00,41.0,19.0,29.88,North,360,0.0,5.0,41,0.00,,,0.00,,2013-02-14 15:32:00,
2013-02-14 10:42:00,41.0,19.0,29.88,North,360,0.0,5.0,41,0.00,,,0.00,,2013-02-14 15:42:00,
2013-02-14 10:52:00,40.0,19.0,29.88,North,360,0.0,7.0,43,0.00,,,0.00,,2013-02-14 15:52:00,
2013-02-14 11:02:00,41.0,19.0,29.89,NE,53,1.0,6.0,41,0.00,,,0.00,,2013-02-14 16:02:00,
2013-02-14 11:11:00,41.0,19.0,29.89,NNE,22,1.0,6.0,40,0.00,,,0.00,,2013-02-14 16:11:00,
2013-02-14 11:21:00,41.0,19.0,29.89,NNE,22,1.0,6.0,40,0.00,,,0.00,,2013-02-14 16:21:00,
2013-02-14 11:32:00,41.0,19.0,29.89,NW,304,1.0,8.0,40,0.00,,,0.00,,2013-02-14 16:32:00,
2013-02-14 11:42:00,41.0,19.0,29.89,NW,304,1.0,8.0,40,0.00,,,0.00,,2013-02-14 16:42:00,
2013-02-14 11:52:00,42.0,19.0,29.89,WSW,241,0.0,7.0,39,0.00,,,0.00,,2013-02-14 16:52:00,
2013-02-14 12:01:00,42.0,18.0,29.89,WNW,301,0.0,7.0,38,0.00,,,0.00,,2013-02-14 17:01:00,
2013-02-14 12:11:00,42.0,18.0,29.88,WNW,300,2.0,7.0,38,0.00,,,0.00,,2013-02-14 17:11:00,
2013-02-14 12:21:00,42.0,18.0,29.88,WNW,300,2.0,7.0,38,0.00,,,0.00,,2013-02-14 17:21:00,
2013-02-14 12:32:00,42.0,19.0,29.88,WSW,243,3.0,10.0,39,0.00,,,0.00,,2013-02-14 17:32:00,
2013-02-14 12:42:00,42.0,19.0,29.88,WSW,243,3.0,10.0,39,0.00,,,0.00,,2013-02-14 17:42:00,
2013-02-14 12:52:00,42.0,17.0,29.88,North,5,0.0,7.0,36,0.00,,,0.00,,2013-02-14 17:52:00,
2013-02-14 13:01:00,42.0,17.0,29.88,West,279,3.0,11.0,36,0.00,,,0.00,,2013-02-14 18:01:00,
2013-02-14 13:11:00,42.0,17.0,29.88,West,279,3.0,11.0,36,0.00,,,0.00,,2013-02-14 18:11:00,
2013-02-14 13:23:00,42.0,18.0,29.88,NW,306,3.0,9.0,37,0.00,,,0.00,,2013-02-14 18:23:00,
2013-02-14 13:32:00,43.0,18.0,29.88,West,273,0.0,5.0,36,0.00,,,0.00,,2013-02-14 18:32:00,
2013-02-14 13:42:00,43.0,18.0,29.88,West,273,0.0,5.0,36,0.00,,,0.00,,2013-02-14 18:42:00,
2013-02-14 13:52:00,44.0,17.0,29.88,WNW,284,3.0,8.0,34,0.00,,,0.00,,2013-02-14 18:52:00,
2013-02-14 14:02:00,43.0,17.0,29.88,WNW,294,2.0,8.0,35,0.00,,,0.00,,2013-02-14 19:02:00,
2013-02-14 14:11:00,43.0,17.0,29.88,WNW,294,2.0,8.0,35,0.00,,,0.00,,2013-02-14 19:11:00,
2013-02-14 14:22:00,44.0,17.0,29.88,WSW,251,1.0,7.0,34,0.00,,,0.00,,2013-02-14 19:22:00,
2013-02-14 14:32:00,43.0,18.0,29.88,South,175,0.0,7.0,36,0.00,,,0.00,,2013-02-14 19:32:00,
2013-02-14 14:42:00,43.0,18.0,29.88,South,175,0.0,7.0,36,0.00,,,0.00,,2013-02-14 19:42:00,
2013-02-14 14:52:00,43.0,17.0,29.88,WSW,249,0.0,7.0,35,0.00,,,0.00,,2013-02-14 19:52:00,
2013-02-14 15:01:00,44.0,19.0,29.88,SW,235,4.0,7.0,36,0.00,,,0.00,,2013-02-14 20:01:00,
2013-02-14 15:11:00,44.0,19.0,29.88,SW,235,4.0,7.0,36,0.00,,,0.00,,2013-02-14 20:11:00,
2013-02-14 15:21:00,44.0,19.0,29.88,SW,235,4.0,7.0,36,0.00,,,0.00,,2013-02-14 20:21:00,
2013-02-14 15:32:00,43.0,19.0,29.90,WSW,248,3.0,9.0,37,0.00,,,0.00,,2013-02-14 20:32:00,
2013-02-14 15:42:00,43.0,19.0,29.90,WSW,248,3.0,9.0,37,0.00,,,0.00,,2013-02-14 20:42:00,
2013-02-14 15:52:00,42.0,18.0,29.90,SSW,197,5.0,11.0,37,0.00,,,0.00,,2013-02-14 20:52:00,
2013-02-14 16:02:00,42.0,18.0,29.90,SW,221,1.0,8.0,37,0.00,,,0.00,,2013-02-14 21:02:00,
2013-02-14 16:11:00,42.0,18.0,29.90,SW,221,1.0,8.0,37,0.00,,,0.00,,2013-02-14 21:11:00,
2013-02-14 16:21:00,42.0,18.0,29.90,WSW,242,1.0,6.0,37,0.00,,,0.00,,2013-02-14 21:21:00,
2013-02-14 16:32:00,42.0,18.0,29.91,WSW,254,3.0,8.0,38,0.00,,,0.00,,2013-02-14 21:32:00,
2013-02-14 16:42:00,42.0,18.0,29.91,WSW,254,3.0,8.0,38,0.00,,,0.00,,2013-02-14 21:42:00,
2013-02-14 16:52:00,41.0,19.0,29.91,SSW,203,4.0,8.0,40,0.00,,,0.00,,2013-02-14 21:52:00,
2013-02-14 17:02:00,41.0,19.0,29.92,SW,215,1.0,5.0,40,0.00,,,0.00,,2013-02-14 22:02:00,
2013-02-14 17:11:00,41.0,19.0,29.92,SW,215,1.0,5.0,40,0.00,,,0.00,,2013-02-14 22:11:00,
2013-02-14 17:21:00,41.0,19.0,29.92,SW,215,1.0,5.0,40,0.00,,,0.00,,2013-02-14 22:21:00,
2013-02-14 17:32:00,39.0,18.0,29.93,SW,215,0.0,2.0,42,0.00,,,0.00,,2013-02-14 22:32:00,
2013-02-14 17:42:00,39.0,18.0,29.93,SW,215,0.0,2.0,42,0.00,,,0.00,,2013-02-14 22:42:00,
2013-02-14 17:52:00,38.0,20.0,29.93,SW,215,0.0,0.0,47,0.00,,,0.00,,2013-02-14 22:52:00,
2013-02-14 18:01:00,37.0,20.0,29.94,SW,215,0.0,0.0,49,0.00,,,0.00,,2013-02-14 23:01:00,
2013-02-14 18:11:00,37.0,20.0,29.94,SW,215,0.0,0.0,49,0.00,,,0.00,,2013-02-14 23:11:00,
2013-02-14 18:21:00,37.0,20.0,29.94,SW,215,0.0,0.0,49,0.00,,,0.00,,2013-02-14 23:21:00,
2013-02-14 18:32:00,34.0,20.0,29.96,SW,215,0.0,0.0,57,0.00,,,0.00,,2013-02-14 23:32:00,
2013-02-14 18:42:00,34.0,20.0,29.96,SW,215,0.0,0.0,57,0.00,,,0.00,,2013-02-14 23:42:00,
2013-02-14 18:52:00,33.0,20.0,29.96,SW,215,0.0,0.0,58,0.00,,,0.00,,2013-02-14 23:52:00,
2013-02-14 19:02:00,32.0,20.0,29.96,SW,215,0.0,0.0,61,0.00,,,0.00,,2013-02-15 00:02:00,
2013-02-14 19:11:00,32.0,20.0,29.96,SW,215,0.0,0.0,61,0.00,,,0.00,,2013-02-15 00:11:00,
2013-02-14 19:22:00,31.0,20.0,29.96,SW,215,0.0,0.0,63,0.00,,,0.00,,2013-02-15 00:22:00,
2013-02-14 19:32:00,31.0,21.0,29.96,SW,215,0.0,0.0,65,0.00,,,0.00,,2013-02-15 00:32:00,
2013-02-14 19:42:00,31.0,21.0,29.96,SW,215,0.0,0.0,65,0.00,,,0.00,,2013-02-15 00:42:00,
2013-02-14 19:52:00,30.0,20.0,29.96,SW,215,0.0,0.0,67,0.00,,,0.00,,2013-02-15 00:52:00,
2013-02-14 20:02:00,29.0,20.0,29.97,SW,215,0.0,0.0,68,0.00,,,0.00,,2013-02-15 01:02:00,
2013-02-14 20:11:00,29.0,20.0,29.97,SW,215,0.0,0.0,68,0.00,,,0.00,,2013-02-15 01:11:00,
2013-02-14 20:21:00,29.0,20.0,29.97,SW,215,0.0,0.0,70,0.00,,,0.00,,2013-02-15 01:21:00,
2013-02-14 20:32:00,28.0,20.0,29.97,SW,215,0.0,0.0,71,0.00,,,0.00,,2013-02-15 01:32:00,
2013-02-14 20:41:00,28.0,20.0,29.97,SW,215,0.0,0.0,71,0.00,,,0.00,,2013-02-15 01:41:00,
2013-02-14 20:52:00,29.0,20.0,29.97,SW,215,0.0,2.0,69,0.00,,,0.00,,2013-02-15 01:52:00,
2013-02-14 21:01:00,29.0,21.0,29.97,SW,215,0.0,0.0,71,0.00,,,0.00,,2013-02-15 02:01:00,
2013-02-14 21:11:00,29.0,21.0,29.97,SW,215,0.0,0.0,71,0.00,,,0.00,,2013-02-15 02:11:00,
2013-02-14 21:21:00,28.0,20.0,29.97,SW,215,0.0,3.0,72,0.00,,,0.00,,2013-02-15 02:21:00,
2013-02-14 21:32:00,28.0,20.0,29.97,SW,215,0.0,0.0,73,0.00,,,0.00,,2013-02-15 02:32:00,
2013-02-14 21:41:00,28.0,20.0,29.97,SW,215,0.0,0.0,73,0.00,,,0.00,,2013-02-15 02:41:00,
2013-02-14 21:52:00,27.0,20.0,29.98,SW,215,0.0,1.0,73,0.00,,,0.00,,2013-02-15 02:52:00,
2013-02-14 22:02:00,27.0,20.0,29.97,SW,215,0.0,0.0,76,0.00,,,0.00,,2013-02-15 03:02:00,
2013-02-14 22:11:00,27.0,20.0,29.97,SW,215,0.0,0.0,76,0.00,,,0.00,,2013-02-15 03:11:00,
2013-02-14 22:22:00,26.0,19.0,29.98,SW,215,0.0,0.0,76,0.00,,,0.00,,2013-02-15 03:22:00,
2013-02-14 22:32:00,26.0,20.0,29.98,SW,215,0.0,0.0,77,0.00,,,0.00,,2013-02-15 03:32:00,
2013-02-14 22:42:00,26.0,20.0,29.98,SW,215,0.0,0.0,77,0.00,,,0.00,,2013-02-15 03:42:00,
2013-02-14 22:52:00,26.0,20.0,29.98,SW,215,0.0,0.0,78,0.00,,,0.00,,2013-02-15 03:52:00,
2013-02-14 23:01:00,26.0,20.0,29.98,SW,215,0.0,0.0,79,0.00,,,0.00,,2013-02-15 04:01:00,
2013-02-14 23:11:00,26.0,20.0,29.98,SW,215,0.0,0.0,79,0.00,,,0.00,,2013-02-15 04:11:00,
2013-02-14 23:21:00,26.0,20.0,29.98,SW,215,0.0,0.0,78,0.00,,,0.00,,2013-02-15 04:21:00,
2013-02-14 23:32:00,26.0,20.0,29.98,SW,215,0.0,0.0,78,0.00,,,0.00,,2013-02-15 04:32:00,
2013-02-14 23:42:00,26.0,20.0,29.98,SW,215,0.0,0.0,78,0.00,,,0.00,,2013-02-15 04:42:00,
2013-02-14 23:52:00,26.0,20.0,29.98,SW,215,0.0,0.0,79,0.00,,,0.00,,2013-02-15 04:52:00,